Tracking 35055 objects as of 18-Aug-2026
HD Live streaming from Space Station
objects crossing your sky now

STARLINK-4027

Track STARLINK-4027 now!
10-day predictions
STARLINK-4027 is classified as:


NORAD ID: 52601
Int'l Code: 2022-052D
Launch date: May 14, 2022
Source: United States (US)
Launch site: AIR FORCE EASTERN TEST RANGE (AFETR)
Your satellite tracking list
Your tracking list is empty




NASA's NSSDC Master Catalog

Two Line Element Set (TLE):
1 52601U 22052D   26229.91668981  .00079266  00000-0  25493-2 0  9999
2 52601  53.1590 272.7228 0001761  80.9734  67.5457 15.31569908  5797
Source of the keplerian elements: AFSPC